Weather History for KVGT - August, 2013

Change the Weather History Date:

Saturday, August 3, 2013

  Actual Average Record
Temperature  
Mean Temperature 89 °F -  
Max Temperature 105 °F 105 °F 112 °F (1952)
Min Temperature 73 °F 79 °F 56 °F (1953)
Cooling Degree Days 24    
Growing Degree Days 39 (Base 50)    
Moisture  
Dew Point 29 °F    
Average Humidity 13    
Maximum Humidity 25    
Minimum Humidity 6    
Precipitation  
Precipitation 0.00 in - - ()
Sea Level Pressure  
Sea Level Pressure 29.85 in    
Wind  
Wind Speed 6 mph (SSW)    
Max Wind Speed 18 mph    
Max Gust Speed 24 mph    
Visibility 10 miles    
Events      
Averages and records for this station are not official NWS values.
T = Trace of Precipitation, MM = Missing Value Source: NWS Daily Summary

Daily Weather History Graph

Daily Weather History Graph

Search for Another Location

Airport or City:

Trip Planner

Search our weather history database for the weather conditions in past years. The results will help you decide how hot, cold, wet, or windy it might be!

Date:

Astronomy

Aug. 03, 2013 Rise Set
Actual Time 5:49 AM PDT 7:43 PM PDT
Civil Twilight 5:21 AM PDT 8:11 PM PDT
Nautical Twilight 4:47 AM PDT 8:45 PM PDT
Astronomical Twilight 4:10 AM PDT 9:22 PM PDT
Moon 3:03 AM PDT (8/3) 5:28 PM PDT (8/3)
Length of Visible Light 14h 50m
Length of Day
13h 54m
Waning Crescent, 9% of the Moon is Illuminated
Aug 3
Waning Crescent
Aug 6
New
Aug 14
First Quarter
Aug 20
Full
Aug 28
Last Quarter

Hourly Weather History & Observations

Time (PDT) Temp. Dew Point Humidity Pressure Visibility Wind Dir Wind Speed Gust Speed Precip Events Conditions
12:53 AM 82.0 °F 28.0 °F 14% 29.82 in 10.0 mi WNW 4.6 mph - N/A   Clear
1:53 AM 79.0 °F 30.0 °F 17% 29.82 in 10.0 mi WNW 5.8 mph - N/A   Clear
2:53 AM 78.1 °F 30.0 °F 17% 29.83 in 10.0 mi Calm Calm - N/A   Clear
3:53 AM 75.9 °F 32.0 °F 20% 29.84 in 10.0 mi NW 3.5 mph - N/A   Clear
4:53 AM 73.0 °F 35.1 °F 25% 29.85 in 10.0 mi WNW 4.6 mph - N/A   Clear
5:53 AM 73.9 °F 34.0 °F 23% 29.87 in 10.0 mi Calm Calm - N/A   Clear
6:53 AM 75.0 °F 35.1 °F 23% 29.89 in 10.0 mi NNW 4.6 mph - N/A   Clear
7:53 AM 82.0 °F 33.1 °F 17% 29.91 in 10.0 mi East 3.5 mph - N/A   Clear
8:53 AM 84.9 °F 30.0 °F 14% 29.91 in 10.0 mi SE 3.5 mph - N/A   Clear
9:53 AM 90.0 °F 32.0 °F 13% 29.91 in 10.0 mi SE 8.1 mph - N/A   Clear
10:53 AM 93.9 °F 30.9 °F 11% 29.91 in 10.0 mi SE 12.7 mph 17.3 mph N/A   Clear
11:53 AM 95.0 °F 30.0 °F 10% 29.90 in 10.0 mi South 9.2 mph - N/A   Clear
12:53 PM 98.1 °F 30.0 °F 9% 29.88 in 10.0 mi SE 10.4 mph 19.6 mph N/A   Clear
1:53 PM 100.9 °F 30.0 °F 8% 29.86 in 10.0 mi SE 10.4 mph 19.6 mph N/A   Clear
2:53 PM 102.9 °F 26.1 °F 7% 29.83 in 10.0 mi South 10.4 mph 16.1 mph N/A   Clear
3:53 PM 105.1 °F 26.1 °F 6% 29.81 in 10.0 mi South 13.8 mph - N/A   Clear
4:53 PM 102.9 °F 27.0 °F 7% 29.81 in 10.0 mi SSW 18.4 mph 24.2 mph N/A   Clear
5:53 PM 100.0 °F 28.0 °F 8% 29.80 in 10.0 mi SW 12.7 mph - N/A   Clear
6:53 PM 99.0 °F 28.9 °F 8% 29.80 in 10.0 mi WSW 11.5 mph - N/A   Clear
7:53 PM 97.0 °F 24.1 °F 7% 29.81 in 10.0 mi West 6.9 mph - N/A   Clear
8:53 PM 95.0 °F 21.9 °F 7% 29.83 in 10.0 mi West 5.8 mph - N/A   Clear
9:53 PM 91.9 °F 24.1 °F 9% 29.85 in 10.0 mi South 4.6 mph - N/A   Clear
10:53 PM 90.0 °F 26.1 °F 10% 29.86 in 10.0 mi SSW 6.9 mph - N/A   Clear
11:53 PM 87.1 °F 26.1 °F 11% 29.86 in 10.0 mi WSW 3.5 mph - N/A   Clear